This demonstration page uses our WeatherBlox Daily Observations layout. Learn more.

39.29038, -76.61219

Hourly Observations for January 25, 2020

Temp ( °F °C ) Dew Point ( °F °C ) Humidity (%) Winds ( mph kmh ) Pressure ( in mb ) Visibility ( mi km ) Precip ( " mm )
12:54 am 00:54 undefined 47 8.3 42 5.6 83 83 undefined N/A 30.03 1017 N/A 0 0
1:54 am 01:54 undefined 46 7.8 42 5.6 86 86 undefined N/A 29.99 1016 N/A 0.05 1.27
2:54 am 02:54 undefined 47 8.3 44 6.7 90 90 undefined N/A 29.96 1015 N/A 0.15 3.81
3:54 am 03:54 undefined 46 7.8 44 6.7 93 93 undefined N/A 29.96 1014 N/A 0.44 11.176
4:54 am 04:54 undefined 47 8.3 44 6.7 90 90 undefined N/A 29.9 1012 N/A 0.21 5.334
5:54 am 05:54 undefined 46 7.8 44 6.7 93 93 undefined N/A 29.88 1012 N/A 0.26 6.604
6:54 am 06:54 undefined 47 8.3 44 6.7 90 90 undefined N/A 29.87 1012 N/A 0.3 7.62
7:54 am 07:54 undefined 46 7.8 43 6.1 89 89 undefined N/A 29.86 1011 N/A 0.11 2.794
8:54 am 08:54 undefined 46 7.8 43 6.1 89 89 undefined N/A 29.8 1009 N/A 0.03 0.762
9:54 am 09:54 undefined 48 8.9 45 7.2 89 89 undefined N/A 29.83 1010 N/A 0.02 0.508
10:54 am 10:54 undefined 48 8.9 44 6.7 86 86 undefined N/A 29.86 1011 N/A 0 0
11:54 am 11:54 undefined 48 8.9 44 6.7 86 86 undefined N/A 29.84 1011 N/A 0 0
12:54 pm 12:54 undefined 48 8.9 43 6.1 83 83 undefined N/A 29.83 1010 N/A 0 0
1:54 pm 13:54 undefined 52 11.1 44 6.7 75 75 undefined N/A 29.83 1010 N/A 0 0
2:54 pm 14:54 undefined 51 10.6 41 5 69 69 undefined N/A 29.81 1010 N/A 0 0
3:54 pm 15:54 undefined 50 10 40 4.4 68 68 undefined N/A 29.81 1010 N/A 0 0
4:54 pm 16:54 undefined 50 10 37 2.8 61 61 undefined N/A 29.82 1010 N/A 0 0
5:54 pm 17:54 undefined 49 9.4 37 2.8 64 64 undefined N/A 29.85 1011 N/A 0 0
6:54 pm 18:54 undefined 48 8.9 37 2.8 66 66 undefined N/A 29.88 1012 N/A 0 0
7:54 pm 19:54 undefined 47 8.3 37 2.8 69 69 undefined N/A 29.87 1011 N/A 0 0
8:54 pm 20:54 undefined 45 7.2 37 2.8 74 74 undefined N/A 29.87 1012 N/A 0 0
9:54 pm 21:54 undefined 43 6.1 36 2.2 76 76 undefined N/A 29.86 1011 N/A 0 0
10:54 pm 22:54 undefined 42 5.6 35 1.7 76 76 undefined N/A 29.88 1012 N/A 0 0
11:54 pm 23:54 undefined 42 5.6 33 0.6 71 71 undefined N/A 29.89 1012 N/A 0 0

Powered by AerisWeather